Weather in Sadovoye

Russia / Stavropol Krai     45°17′16″N   44°38′54″E
temp.,
°C
wind,
m/s
gust,
m/s
humid.,
%
clouds,
%
prec.,
mm/h
press.,
hPa
HPBL,
m
11 april, sun
sun1100:00+8w5681100 0.0 1020265
03:00+7w238782 0.0 102055
06:00+8w228383 0.0 101970
09:00+11e116811 0.0 1019630
12:00+16e455362 0.0 10191059
15:00+19ese684336 0.0 10161303
18:00+16ese585192 0.0 1016251
21:00+13ese4760100 0.0 1016110
12 april, mon
mon1200:00+11e3561100 0.0 101685
03:00+12e3759100 0.0 1015145
06:00+11ese3770100 0.0 1016242
09:00+14ese5759100 0.0 1018636
12:00+17ese6851100 0.0 1019993
15:00+17ese8951100 0.0 10191106
18:00+14ese5963100 0.0 1020554
21:00+12e3668100 0.0 1022141
13 april, tue
tue1300:00+10ese347046 0.0 102162
03:00+11ese2467100 0.0 1021143
06:00+11e376597 0.0 1021215
09:00+12ese3672100 0.0 1022295
12:00+16se4764100 0.0 1021715
15:00+20se594389 0.0 10191998
18:00+17ese8134356 0.0 1020485
21:00+12ese41152100 0.0 1020288
14 april, wed
wed1400:00+10e4956100 0.0 1018187
03:00+9ene3461100 0.0 101753
06:00+9ne2265100 0.0 101612
09:00+14e4547100 0.0 1016466
12:00+18se81039100 0.0 10161072
15:00+16e5649100 0.1 1016751
18:00+15ese3454100 0.0 101673
21:00+13sse2256100 0.0 101719
15 april, thu
thu1500:00+12e1157100 0.0 101611
03:00+12nne2257100 0.0 101519
06:00+11nnw226372 0.0 101523
09:00+15wnw22515 0.0 1015581
12:00+18w224332 0.0 10141694
15:00+19wsw4443100 0.0 10131800
18:00+17w355279 0.0 1013170
21:00+13wsw45624 0.0 101468